Home > Weather > Auxerre > Past weeks

Flag for France Weather for the Past 2 Weeks in Auxerre, Burgundy, France

Now
50 °F

Sunny.


Feels Like: 50 °F
Forecast: 42 / 69 °F
Wind: 2 mph from North

Location: Troyes Airport

Current Time: May 4, 2016 at 10:23:59 AM

Latest Report: May 4, 2016 at 9:30 AM


Visibility: 10 mi

Pressure: 30.36 "Hg

Humidity: 67%

Dew Point: 39 °F

Location of AuxerreLocation

Historic Weather in Auxerre — Graph

°F

Auxerre Temperature Yesterday

Maximum temperature yesterday: 61 °F (at 3:30 PM)
Minimum temperature yesterday: 39 °F (at 11:30 PM)
Average temperature yesterday: 52 °F

High & Low Weather Summary for the Past Weeks

 TemperatureHumidityPressure
High72 °F (Apr 21, 3:30 PM)100% (Apr 23, 6:30 AM)30.36 "Hg (Apr 23, 6:30 AM)
Low30 °F (Apr 24, 5:30 AM)35% (Apr 20, 4:30 PM)29.68 "Hg (Apr 26, 5:00 AM)
Average48 °F74%30.08 "Hg
* Reported Apr 19 8:00 AM — May 4 8:00 AM, Auxerre, Weather by CustomWeather, © 2016

Note: Actual official high and low records may vary slightly from our data, if they occured in-between our weather recording intervals... More about our weather records

Advertising

Auxerre Weather History for the Previous 24 Hours

Scroll right to see more
 ConditionsComfort  
Time TempWeatherWind HumidityBarometerVisibility
8:00 AM
Wed, May 4
41 °FSunny.No wind87%30.36 "Hg10 mi
7:30 AM37 °FSunny.No wind93%30.36 "Hg10 mi
7:00 AM34 °FClear.No wind93%30.36 "Hg10 mi
6:30 AM34 °FClear.No wind93%30.33 "Hg10 mi
6:00 AM34 °FClear.No wind87%30.36 "Hg10 mi
5:30 AM36 °FClear.No wind87%30.33 "Hg10 mi
5:00 AM36 °FClear.2 mph87%30.36 "Hg10 mi
4:30 AM37 °FClear.1 mph87%30.33 "Hg10 mi
4:00 AM37 °FPassing clouds.5 mph87%30.33 "HgN/A
3:30 AM37 °FClear.5 mph87%30.33 "Hg10 mi
3:00 AM37 °FClear.2 mph87%30.36 "Hg10 mi
2:30 AM36 °FClear.5 mph87%30.36 "Hg10 mi
2:00 AM39 °FClear.3 mph87%30.36 "Hg10 mi
1:30 AM37 °FClear.No wind93%30.36 "Hg10 mi
1:00 AM39 °FClear.No wind87%30.36 "Hg10 mi
12:30 AM39 °FClear.No wind87%30.36 "Hg10 mi
12:00 AM41 °FClear.3 mph81%30.36 "Hg10 mi
11:30 PM
Tue, May 3
39 °FClear.3 mph87%30.36 "Hg10 mi
11:00 PM41 °FClear.3 mph87%30.36 "Hg10 mi
10:30 PM43 °FClear.3 mph81%30.33 "Hg10 mi
10:00 PM43 °FSunny.3 mph87%30.33 "Hg10 mi
9:30 PM45 °FSunny.5 mph81%30.33 "Hg10 mi
9:00 PM50 °FSunny.3 mph67%30.33 "Hg10 mi
8:30 PM55 °FSunny.6 mph51%30.30 "Hg10 mi
8:00 PM57 °FSunny.6 mph44%30.30 "Hg10 mi
7:30 PM57 °FSunny.7 mph44%30.30 "Hg10 mi
7:00 PM59 °FSunny.9 mph39%30.30 "Hg10 mi
6:30 PM59 °FSunny.10 mph42%30.30 "Hg10 mi
6:00 PM59 °FPassing clouds.8 mph42%30.30 "HgN/A
5:30 PM59 °FSunny.10 mph42%30.30 "Hg10 mi
5:00 PM59 °FPassing clouds.9 mph45%30.30 "HgN/A
4:30 PM59 °FSunny.13 mph42%30.27 "Hg10 mi
4:00 PM59 °FPassing clouds.10 mph39%30.27 "HgN/A
3:30 PM61 °FPassing clouds.9 mph42%30.27 "HgN/A
3:00 PM59 °FPassing clouds.12 mph48%30.27 "HgN/A
2:30 PM59 °FScattered clouds.14 mph55%30.27 "HgN/A
2:00 PM55 °FBroken clouds.12 mph59%30.27 "HgN/A
1:30 PM55 °FBroken clouds.12 mph63%30.27 "HgN/A
1:00 PM55 °FPartly sunny.10 mph63%30.27 "HgN/A
12:30 PM55 °FScattered clouds.12 mph59%30.27 "HgN/A
12:00 PM54 °FBroken clouds.13 mph67%30.27 "HgN/A
11:30 AM54 °FScattered clouds.13 mph77%30.27 "HgN/A
11:00 AM52 °FPartly sunny.13 mph72%30.27 "HgN/A
10:30 AM52 °FBroken clouds.12 mph77%30.27 "HgN/A
10:00 AM52 °FPartly sunny.13 mph82%30.24 "HgN/A
Weather by CustomWeather, © 2016

See weather overviewHow to use our weather pages